| time (UTC) | temp C | wind direction | speed KPH | gust KPH | rain 1hr cm | rain 24hr cm | rain mn cm | humidity % | barometer mb |
| 20260510095045 | 17 | 5 | 3.2 | 4.8 | 0.00 | 0.00 | 0.00 | 78 | 966.4 |
| 20260510094555 | 18 | 5 | 0.0 | 8.0 | 0.00 | 0.00 | 0.00 | 78 | 966.4 |
| 20260510094043 | 18 | 9 | 4.8 | 8.0 | 0.00 | 0.00 | 0.00 | 77 | 966.3 |
| 20260510093542 | 18 | 355 | 3.2 | 4.8 | 0.00 | 0.00 | 0.00 | 79 | 966.1 |
| 20260510093045 | 18 | 163 | 1.6 | 3.2 | 0.00 | 0.00 | 0.00 | 79 | 965.9 |
| 20260510092541 | 18 | 163 | 0.0 | 3.2 | 0.00 | 0.00 | 0.00 | 77 | 966.0 |
| 20260510092044 | 19 | 163 | 0.0 | 4.8 | 0.00 | 0.00 | 0.00 | 75 | 966.2 |
| 20260510091542 | 19 | 166 | 0.0 | 3.2 | 0.00 | 0.00 | 0.00 | 75 | 966.3 |
| 20260510091039 | 19 | 166 | 0.0 | 4.8 | 0.00 | 0.00 | 0.00 | 75 | 966.3 |
| 20260510090539 | 19 | 166 | 1.6 | 8.0 | 0.00 | 0.00 | 0.00 | 74 | 966.2 |
| 20260510090041 | 19 | 178 | 3.2 | 9.7 | 0.00 | 0.00 | 0.00 | 74 | 966.2 |
| 20260510085539 | 19 | 157 | 4.8 | 9.7 | 0.00 | 0.00 | 0.00 | 74 | 966.1 |
| 20260510085038 | 19 | 148 | 3.2 | 11.3 | 0.00 | 0.00 | 0.00 | 74 | 966.1 |
| 20260510084538 | 19 | 166 | 3.2 | 11.3 | 0.00 | 0.00 | 0.00 | 73 | 966.2 |
| 20260510084038 | 19 | 149 | 3.2 | 12.9 | 0.00 | 0.00 | 0.00 | 73 | 966.0 |
| 20260510083538 | 19 | 163 | 4.8 | 16.1 | 0.00 | 0.00 | 0.00 | 73 | 966.0 |
| 20260510083051 | 19 | 157 | 8.0 | 16.1 | 0.00 | 0.00 | 0.00 | 73 | 966.1 |
| 20260510082537 | 19 | 180 | 4.8 | 11.3 | 0.00 | 0.00 | 0.00 | 73 | 966.2 |
| 20260510082037 | 19 | 163 | 4.8 | 8.0 | 0.00 | 0.00 | 0.00 | 72 | 966.0 |
| 20260510081541 | 18 | 159 | 3.2 | 8.0 | 0.00 | 0.00 | 0.00 | 72 | 966.2 |
| 20260510081036 | 18 | 163 | 1.6 | 6.4 | 0.00 | 0.00 | 0.00 | 72 | 966.1 |
| 20260510080535 | 18 | 180 | 1.6 | 4.8 | 0.00 | 0.00 | 0.00 | 71 | 966.1 |
| 20260510080035 | 18 | 178 | 0.0 | 4.8 | 0.00 | 0.00 | 0.00 | 70 | 966.1 |
| 20260510075535 | 18 | 177 | 1.6 | 4.8 | 0.00 | 0.00 | 0.00 | 70 | 966.0 |
| 20260510075035 | 18 | 178 | 1.6 | 6.4 | 0.00 | 0.00 | 0.00 | 70 | 966.0 |
| 20260510074535 | 18 | 174 | 1.6 | 8.0 | 0.00 | 0.00 | 0.00 | 69 | 965.9 |
| 20260510074035 | 18 | 192 | 0.0 | 8.0 | 0.00 | 0.00 | 0.00 | 68 | 966.0 |
| 20260510073533 | 18 | 157 | 0.0 | 0.0 | 0.00 | 0.00 | 0.00 | 67 | 966.0 |
| 20260510073040 | 18 | 156 | 0.0 | 0.0 | 0.00 | 0.00 | 0.00 | 67 | 966.0 |
| 20260510072533 | 18 | 156 | 0.0 | 0.0 | 0.00 | 0.00 | 0.00 | 67 | 965.9 |
| 20260510072032 | 19 | 156 | 0.0 | 0.0 | 0.00 | 0.00 | 0.00 | 66 | 965.9 |
| 20260510071536 | 19 | 156 | 0.0 | 1.6 | 0.00 | 0.00 | 0.00 | 66 | 966.0 |
| 20260510071031 | 19 | 156 | 0.0 | 1.6 | 0.00 | 0.00 | 0.00 | 66 | 966.0 |
| 20260510070530 | 19 | 156 | 0.0 | 3.2 | 0.00 | 0.00 | 0.00 | 65 | 965.9 |
| 20260510070029 | 19 | 156 | 0.0 | 3.2 | 0.00 | 0.00 | 0.00 | 65 | 966.0 |
| 20260510065528 | 20 | 156 | 0.0 | 3.2 | 0.00 | 0.00 | 0.00 | 64 | 966.0 |
| 20260510065028 | 20 | 157 | 1.6 | 4.8 | 0.00 | 0.00 | 0.00 | 63 | 966.0 |
| 20260510064529 | 20 | 155 | 0.0 | 4.8 | 0.00 | 0.00 | 0.00 | 63 | 966.1 |
| 20260510064026 | 20 | 155 | 1.6 | 8.0 | 0.00 | 0.00 | 0.00 | 63 | 966.1 |
| 20260510063525 | 20 | 158 | 1.6 | 8.0 | 0.00 | 0.00 | 0.00 | 62 | 966.1 |
| 20260510063025 | 20 | 154 | 3.2 | 8.0 | 0.00 | 0.00 | 0.00 | 62 | 966.2 |
| 20260510062525 | 20 | 163 | 1.6 | 8.0 | 0.00 | 0.00 | 0.00 | 61 | 966.2 |
| 20260510062025 | 20 | 166 | 3.2 | 8.0 | 0.00 | 0.00 | 0.00 | 61 | 966.2 |
| 20260510061523 | 20 | 180 | 3.2 | 8.0 | 0.00 | 0.00 | 0.00 | 60 | 966.3 |
| 20260510061024 | 20 | 167 | 4.8 | 11.3 | 0.00 | 0.00 | 0.00 | 59 | 966.1 |
| 20260510060525 | 20 | 176 | 4.8 | 12.9 | 0.00 | 0.00 | 0.00 | 59 | 966.0 |
| 20260510060035 | 20 | 143 | 4.8 | 14.5 | 0.00 | 0.00 | 0.00 | 58 | 966.1 |
| 20260510055520 | 20 | 173 | 6.4 | 14.5 | 0.00 | 0.00 | 0.00 | 56 | 966.1 |
| 20260510055020 | 20 | 163 | 8.0 | 14.5 | 0.00 | 0.00 | 0.00 | 55 | 966.2 |
| 20260510054532 | 20 | 165 | 6.4 | 12.9 | 0.00 | 0.00 | 0.00 | 54 | 966.2 |
| 20260510054021 | 20 | 167 | 4.8 | 14.5 | 0.00 | 0.00 | 0.00 | 54 | 966.2 |
| 20260510053518 | 20 | 164 | 6.4 | 14.5 | 0.00 | 0.00 | 0.00 | 54 | 966.2 |
| 20260510053018 | 20 | 156 | 8.0 | 12.9 | 0.00 | 0.00 | 0.00 | 53 | 966.3 |
| 20260510052517 | 20 | 155 | 4.8 | 11.3 | 0.00 | 0.00 | 0.00 | 54 | 966.4 |
| 20260510052017 | 20 | 154 | 3.2 | 9.7 | 0.00 | 0.00 | 0.00 | 53 | 966.3 |
| 20260510051515 | 20 | 183 | 3.2 | 9.7 | 0.00 | 0.00 | 0.00 | 52 | 966.4 |
| 20260510051016 | 20 | 173 | 3.2 | 9.7 | 0.00 | 0.00 | 0.00 | 52 | 966.3 |
| 20260510050514 | 20 | 161 | 4.8 | 9.7 | 0.00 | 0.00 | 0.00 | 52 | 966.3 |
| 20260510050014 | 20 | 166 | 4.8 | 11.3 | 0.00 | 0.00 | 0.00 | 52 | 966.2 |
| 20260510045516 | 20 | 157 | 4.8 | 9.7 | 0.00 | 0.00 | 0.00 | 52 | 966.1 |
| 20260510045013 | 20 | 182 | 4.8 | 8.0 | 0.00 | 0.00 | 0.00 | 52 | 965.9 |
| 20260510044513 | 20 | 155 | 1.6 | 4.8 | 0.00 | 0.00 | 0.00 | 52 | 965.9 |
| 20260510044012 | 20 | 169 | 1.6 | 4.8 | 0.00 | 0.00 | 0.00 | 51 | 965.9 |
| 20260510043512 | 20 | 176 | 1.6 | 4.8 | 0.00 | 0.00 | 0.00 | 50 | 965.8 |
| 20260510043013 | 20 | 178 | 3.2 | 8.0 | 0.00 | 0.00 | 0.00 | 49 | 965.9 |
| 20260510042515 | 20 | 157 | 1.6 | 9.7 | 0.00 | 0.00 | 0.00 | 48 | 965.8 |
| 20260510042011 | 20 | 167 | 3.2 | 4.8 | 0.00 | 0.00 | 0.00 | 46 | 965.8 |
| 20260510041509 | 20 | 159 | 3.2 | 9.7 | 0.00 | 0.00 | 0.00 | 46 | 965.7 |
| 20260510041009 | 20 | 167 | 3.2 | 9.7 | 0.00 | 0.00 | 0.00 | 45 | 965.7 |
| 20260510040509 | 20 | 157 | 3.2 | 9.7 | 0.00 | 0.00 | 0.00 | 46 | 965.6 |
| 20260510040007 | 20 | 148 | 3.2 | 9.7 | 0.00 | 0.00 | 0.00 | 47 | 965.5 |
| 20260510035508 | 20 | 153 | 1.6 | 4.8 | 0.00 | 0.00 | 0.00 | 48 | 965.6 |
| 20260510035009 | 20 | 129 | 3.2 | 4.8 | 0.00 | 0.00 | 0.00 | 49 | 965.5 |
| 20260510034513 | 19 | 123 | 3.2 | 4.8 | 0.00 | 0.00 | 0.00 | 50 | 965.4 |
| 20260510034007 | 20 | 128 | 1.6 | 4.8 | 0.00 | 0.00 | 0.00 | 49 | 965.4 |
| 20260510033510 | 20 | 128 | 1.6 | 4.8 | 0.00 | 0.00 | 0.00 | 50 | 965.3 |
| 20260510033007 | 19 | 132 | 1.6 | 4.8 | 0.00 | 0.00 | 0.00 | 51 | 965.2 |
| 20260510032509 | 19 | 131 | 1.6 | 4.8 | 0.00 | 0.00 | 0.00 | 51 | 965.4 |
| 20260510032006 | 20 | 132 | 1.6 | 6.4 | 0.00 | 0.00 | 0.00 | 50 | 965.3 |
| 20260510031510 | 20 | 140 | 1.6 | 6.4 | 0.00 | 0.00 | 0.00 | 49 | 965.3 |
| 20260510031006 | 20 | 136 | 1.6 | 4.8 | 0.00 | 0.00 | 0.00 | 50 | 965.2 |
| 20260510030508 | 20 | 136 | 1.6 | 4.8 | 0.00 | 0.00 | 0.00 | 49 | 965.2 |
| 20260510030010 | 20 | 130 | 1.6 | 4.8 | 0.00 | 0.00 | 0.00 | 49 | 965.1 |
| 20260510025506 | 20 | 130 | 1.6 | 4.8 | 0.00 | 0.00 | 0.00 | 50 | 965.0 |
| 20260510025003 | 20 | 130 | 0.0 | 4.8 | 0.00 | 0.00 | 0.00 | 50 | 964.9 |
| 20260510024503 | 20 | 130 | 1.6 | 4.8 | 0.00 | 0.00 | 0.00 | 50 | 964.7 |
| 20260510024003 | 20 | 131 | 1.6 | 4.8 | 0.00 | 0.00 | 0.00 | 49 | 964.6 |
| 20260510023502 | 20 | 134 | 1.6 | 8.0 | 0.00 | 0.00 | 0.00 | 49 | 964.5 |
| 20260510023002 | 20 | 139 | 1.6 | 6.4 | 0.00 | 0.00 | 0.00 | 48 | 964.5 |
| 20260510022503 | 20 | 128 | 3.2 | 6.4 | 0.00 | 0.00 | 0.00 | 48 | 964.4 |
| 20260510022002 | 20 | 138 | 1.6 | 3.2 | 0.00 | 0.00 | 0.00 | 50 | 964.3 |
| 20260510021501 | 20 | 138 | 1.6 | 4.8 | 0.00 | 0.00 | 0.00 | 50 | 964.3 |
| 20260510021001 | 20 | 138 | 1.6 | 4.8 | 0.00 | 0.00 | 0.00 | 49 | 964.0 |
| 20260510020501 | 20 | 138 | 1.6 | 4.8 | 0.00 | 0.00 | 0.00 | 49 | 964.0 |
| 20260510020101 | 20 | 138 | 1.6 | 4.8 | 0.00 | 0.00 | 0.00 | 50 | 963.8 |
| 20260510015600 | 20 | 139 | 1.6 | 3.2 | 0.00 | 0.00 | 0.00 | 50 | 963.8 |
| 20260510015100 | 20 | 139 | 0.0 | 1.6 | 0.00 | 0.00 | 0.00 | 50 | 963.8 |
| 20260510014603 | 21 | 139 | 0.0 | 3.2 | 0.00 | 0.00 | 0.00 | 50 | 963.6 |
| 20260510014100 | 21 | 139 | 0.0 | 3.2 | 0.00 | 0.00 | 0.00 | 49 | 963.6 |
| 20260510013600 | 21 | 139 | 0.0 | 3.2 | 0.00 | 0.00 | 0.00 | 48 | 963.5 |
| 20260510013105 | 21 | 139 | 1.6 | 3.2 | 0.00 | 0.00 | 0.00 | 48 | 963.6 |
| 20260510012600 | 21 | 139 | 1.6 | 3.2 | 0.00 | 0.00 | 0.00 | 48 | 963.5 |
| 20260510012059 | 21 | 140 | 1.6 | 4.8 | 0.00 | 0.00 | 0.00 | 48 | 963.5 |
| 20260510011559 | 22 | 143 | 1.6 | 4.8 | 0.00 | 0.00 | 0.00 | 46 | 963.3 |
| 20260510011058 | 22 | 147 | 1.6 | 4.8 | 0.00 | 0.00 | 0.00 | 45 | 963.3 |
| 20260510010558 | 22 | 150 | 1.6 | 4.8 | 0.00 | 0.00 | 0.00 | 44 | 963.3 |
| 20260510005559 | 23 | 153 | 1.6 | 8.0 | 0.00 | 0.00 | 0.00 | 42 | 963.2 |
| 20260510005058 | 23 | 156 | 1.6 | 4.8 | 0.00 | 0.00 | 0.00 | 43 | 963.2 |
| 20260510004600 | 23 | 163 | 0.0 | 3.2 | 0.00 | 0.00 | 0.00 | 43 | 963.1 |
| 20260510004058 | 23 | 163 | 1.6 | 3.2 | 0.00 | 0.00 | 0.00 | 43 | 963.1 |
| 20260510003558 | 23 | 163 | 1.6 | 3.2 | 0.00 | 0.00 | 0.00 | 43 | 963.0 |
| 20260510003100 | 24 | 165 | 0.0 | 4.8 | 0.00 | 0.00 | 0.00 | 43 | 963.1 |
| 20260510002558 | 24 | 165 | 1.6 | 6.4 | 0.00 | 0.00 | 0.00 | 42 | 963.0 |
| 20260510002057 | 24 | 165 | 1.6 | 4.8 | 0.00 | 0.00 | 0.00 | 42 | 963.0 |
| 20260510001558 | 25 | 164 | 1.6 | 4.8 | 0.00 | 0.00 | 0.00 | 41 | 963.1 |
| 20260510001056 | 25 | 187 | 3.2 | 8.0 | 0.00 | 0.00 | 0.00 | 40 | 963.0 |
| 20260510000556 | 25 | 137 | 1.6 | 8.0 | 0.00 | 0.00 | 0.00 | 39 | 962.9 |
| 20260510000056 | 25 | 156 | 3.2 | 4.8 | 0.00 | 0.00 | 0.00 | 39 | 962.9 |
| 20260509235556 | 25 | 165 | 1.6 | 4.8 | 0.00 | 0.00 | 0.00 | 39 | 962.9 |
| 20260509235057 | 25 | 164 | 1.6 | 8.0 | 0.00 | 0.00 | 0.00 | 38 | 962.9 |
| 20260509234556 | 25 | 162 | 3.2 | 8.0 | 0.00 | 0.00 | 0.00 | 37 | 962.9 |
| 20260509234055 | 26 | 158 | 3.2 | 8.0 | 0.00 | 0.00 | 0.00 | 36 | 962.9 |
| 20260509233554 | 26 | 175 | 4.8 | 11.3 | 0.00 | 0.00 | 0.00 | 35 | 962.9 |
| 20260509233055 | 26 | 155 | 3.2 | 11.3 | 0.00 | 0.00 | 0.00 | 36 | 963.0 |
| 20260509232555 | 26 | 152 | 1.6 | 6.4 | 0.00 | 0.00 | 0.00 | 35 | 963.1 |
| 20260509232055 | 26 | 136 | 3.2 | 9.7 | 0.00 | 0.00 | 0.00 | 33 | 963.0 |
| 20260509231556 | 26 | 195 | 4.8 | 9.7 | 0.00 | 0.00 | 0.00 | 33 | 963.1 |
| 20260509231054 | 26 | 117 | 3.2 | 9.7 | 0.00 | 0.00 | 0.00 | 33 | 963.0 |
| 20260509230554 | 26 | 139 | 3.2 | 9.7 | 0.00 | 0.00 | 0.00 | 34 | 963.0 |
| 20260509230058 | 26 | 121 | 4.8 | 9.7 | 0.00 | 0.00 | 0.00 | 33 | 962.9 |
| 20260509225553 | 26 | 125 | 1.6 | 8.0 | 0.00 | 0.00 | 0.00 | 34 | 962.8 |
| 20260509225057 | 26 | 207 | 4.8 | 9.7 | 0.00 | 0.00 | 0.00 | 33 | 962.9 |
| 20260509224559 | 26 | 174 | 4.8 | 9.7 | 0.00 | 0.00 | 0.00 | 34 | 962.8 |
| 20260509224055 | 27 | 178 | 4.8 | 8.0 | 0.00 | 0.00 | 0.00 | 35 | 962.9 |
| 20260509223554 | 27 | 285 | 1.6 | 6.4 | 0.00 | 0.00 | 0.00 | 33 | 962.8 |
| 20260509223054 | 27 | 254 | 3.2 | 6.4 | 0.00 | 0.00 | 0.00 | 33 | 962.9 |
| 20260509222554 | 27 | 240 | 3.2 | 6.4 | 0.00 | 0.00 | 0.00 | 35 | 962.8 |
| 20260509222053 | 27 | 5 | 1.6 | 6.4 | 0.00 | 0.00 | 0.00 | 33 | 962.8 |
| 20260509221553 | 27 | 355 | 3.2 | 6.4 | 0.00 | 0.00 | 0.00 | 32 | 962.8 |
| 20260509221051 | 27 | 296 | 3.2 | 6.4 | 0.00 | 0.00 | 0.00 | 32 | 962.9 |
| 20260509220553 | 27 | 12 | 3.2 | 6.4 | 0.00 | 0.00 | 0.00 | 30 | 962.9 |
| 20260509220054 | 27 | 11 | 3.2 | 6.4 | 0.00 | 0.00 | 0.00 | 31 | 962.9 |
| 20260509215553 | 27 | 11 | 3.2 | 6.4 | 0.00 | 0.00 | 0.00 | 31 | 963.0 |
| 20260509215052 | 27 | 194 | 0.0 | 6.4 | 0.00 | 0.00 | 0.00 | 31 | 963.0 |
| 20260509214558 | 27 | 188 | 0.0 | 8.0 | 0.00 | 0.00 | 0.00 | 30 | 963.0 |
| 20260509214051 | 26 | 217 | 4.8 | 11.3 | 0.00 | 0.00 | 0.00 | 31 | 963.1 |
| 20260509213555 | 26 | 234 | 3.2 | 11.3 | 0.00 | 0.00 | 0.00 | 30 | 963.1 |
| 20260509213113 | 27 | 245 | 6.4 | 11.3 | 0.00 | 0.00 | 0.00 | 30 | 963.1 |
| 20260509212552 | 27 | 254 | 3.2 | 9.7 | 0.00 | 0.00 | 0.00 | 30 | 963.1 |
| 20260509212052 | 27 | 236 | 3.2 | 9.7 | 0.00 | 0.00 | 0.00 | 29 | 963.0 |
| 20260509211553 | 27 | 212 | 3.2 | 9.7 | 0.00 | 0.00 | 0.00 | 30 | 963.0 |
| 20260509211050 | 27 | 262 | 3.2 | 8.0 | 0.00 | 0.00 | 0.00 | 31 | 963.1 |
| 20260509210550 | 27 | 261 | 3.2 | 8.0 | 0.00 | 0.00 | 0.00 | 29 | 963.2 |
| 20260509205550 | 27 | 261 | 1.6 | 6.4 | 0.00 | 0.00 | 0.00 | 30 | 963.2 |
| 20260509205049 | 27 | 255 | 3.2 | 8.0 | 0.00 | 0.00 | 0.00 | 28 | 963.3 |
| 20260509204549 | 27 | 238 | 3.2 | 8.0 | 0.00 | 0.00 | 0.00 | 29 | 963.2 |
| 20260509204049 | 27 | 54 | 3.2 | 11.3 | 0.00 | 0.00 | 0.00 | 27 | 963.2 |
| 20260509203548 | 27 | 139 | 4.8 | 11.3 | 0.00 | 0.00 | 0.00 | 28 | 963.3 |
| 20260509203048 | 27 | 138 | 1.6 | 11.3 | 0.00 | 0.00 | 0.00 | 28 | 963.4 |
| 20260509202549 | 27 | 138 | 3.2 | 11.3 | 0.00 | 0.00 | 0.00 | 28 | 963.5 |
| 20260509202049 | 27 | 99 | 1.6 | 6.4 | 0.00 | 0.00 | 0.00 | 28 | 963.6 |
| 20260509201547 | 27 | 44 | 3.2 | 8.0 | 0.00 | 0.00 | 0.00 | 29 | 963.7 |
| 20260509201047 | 27 | 22 | 3.2 | 8.0 | 0.00 | 0.00 | 0.00 | 28 | 963.8 |
| 20260509200547 | 27 | 232 | 1.6 | 9.7 | 0.00 | 0.00 | 0.00 | 28 | 963.7 |
| 20260509200047 | 27 | 252 | 3.2 | 12.9 | 0.00 | 0.00 | 0.00 | 28 | 963.7 |
| 20260509195548 | 27 | 283 | 4.8 | 12.9 | 0.00 | 0.00 | 0.00 | 32 | 963.8 |
| 20260509195050 | 27 | 318 | 3.2 | 12.9 | 0.00 | 0.00 | 0.00 | 28 | 963.8 |
| 20260509194547 | 27 | 261 | 6.4 | 11.3 | 0.00 | 0.00 | 0.00 | 30 | 963.9 |
| 20260509194046 | 27 | 266 | 4.8 | 9.7 | 0.00 | 0.00 | 0.00 | 32 | 964.0 |
| 20260509193545 | 27 | 279 | 1.6 | 12.9 | 0.00 | 0.00 | 0.00 | 32 | 964.0 |
| 20260509193046 | 27 | 299 | 3.2 | 12.9 | 0.00 | 0.00 | 0.00 | 32 | 964.1 |
| 20260509192549 | 27 | 275 | 3.2 | 6.4 | 0.00 | 0.00 | 0.00 | 31 | 964.0 |
| 20260509192044 | 27 | 290 | 0.0 | 8.0 | 0.00 | 0.00 | 0.00 | 31 | 964.1 |
| 20260509191544 | 26 | 154 | 3.2 | 9.7 | 0.00 | 0.00 | 0.00 | 31 | 964.1 |
| 20260509191043 | 26 | 268 | 4.8 | 9.7 | 0.00 | 0.00 | 0.00 | 34 | 964.2 |
| 20260509190544 | 26 | 340 | 3.2 | 12.9 | 0.00 | 0.00 | 0.00 | 31 | 964.2 |
| 20260509190045 | 27 | 269 | 6.4 | 11.3 | 0.00 | 0.00 | 0.00 | 32 | 964.2 |
| 20260509185544 | 27 | 240 | 4.8 | 12.9 | 0.00 | 0.00 | 0.00 | 30 | 964.2 |
| 20260509185044 | 27 | 247 | 3.2 | 12.9 | 0.00 | 0.00 | 0.00 | 34 | 964.2 |
| 20260509184552 | 26 | 179 | 3.2 | 11.3 | 0.00 | 0.00 | 0.00 | 31 | 964.3 |
| 20260509184042 | 27 | 248 | 1.6 | 9.7 | 0.00 | 0.00 | 0.00 | 32 | 964.2 |
| 20260509183541 | 26 | 274 | 1.6 | 9.7 | 0.00 | 0.00 | 0.00 | 32 | 964.1 |
| 20260509183041 | 26 | 326 | 3.2 | 14.5 | 0.00 | 0.00 | 0.00 | 34 | 964.2 |
| 20260509182541 | 26 | 321 | 6.4 | 14.5 | 0.00 | 0.00 | 0.00 | 35 | 964.2 |
| 20260509182040 | 26 | 303 | 6.4 | 12.9 | 0.00 | 0.00 | 0.00 | 32 | 964.2 |
| 20260509181552 | 26 | 19 | 8.0 | 12.9 | 0.00 | 0.00 | 0.00 | 33 | 964.2 |
| 20260509181039 | 26 | 39 | 6.4 | 12.9 | 0.00 | 0.00 | 0.00 | 31 | 964.2 |
| 20260509180539 | 26 | 155 | 0.0 | 12.9 | 0.00 | 0.00 | 0.00 | 34 | 964.2 |
| 20260509180046 | 26 | 136 | 4.8 | 9.7 | 0.00 | 0.00 | 0.00 | 37 | 964.3 |
| 20260509175538 | 26 | 198 | 3.2 | 9.7 | 0.00 | 0.00 | 0.00 | 38 | 964.2 |
| 20260509175038 | 26 | 225 | 3.2 | 9.7 | 0.00 | 0.00 | 0.00 | 33 | 964.2 |
| 20260509174538 | 26 | 322 | 1.6 | 8.0 | 0.00 | 0.00 | 0.00 | 32 | 964.2 |
| 20260509174036 | 26 | 260 | 4.8 | 8.0 | 0.00 | 0.00 | 0.00 | 34 | 964.3 |
| 20260509173536 | 26 | 233 | 1.6 | 12.9 | 0.00 | 0.00 | 0.00 | 32 | 964.4 |
| 20260509173040 | 26 | 263 | 8.0 | 12.9 | 0.00 | 0.00 | 0.00 | 34 | 964.4 |
| 20260509172534 | 25 | 265 | 3.2 | 9.7 | 0.00 | 0.00 | 0.00 | 36 | 964.5 |
| 20260509172033 | 25 | 16 | 1.6 | 9.7 | 0.00 | 0.00 | 0.00 | 39 | 964.5 |
| 20260509171534 | 25 | 338 | 3.2 | 9.7 | 0.00 | 0.00 | 0.00 | 37 | 964.6 |
| 20260509171031 | 25 | 251 | 1.6 | 8.0 | 0.00 | 0.00 | 0.00 | 38 | 964.5 |
| 20260509170530 | 25 | 301 | 3.2 | 8.0 | 0.00 | 0.00 | 0.00 | 42 | 964.5 |
| 20260509170037 | 25 | 218 | 3.2 | 6.4 | 0.00 | 0.00 | 0.00 | 45 | 964.6 |
| 20260509165527 | 24 | 202 | 1.6 | 12.9 | 0.00 | 0.00 | 0.00 | 44 | 964.7 |
| 20260509165026 | 25 | 219 | 3.2 | 11.3 | 0.00 | 0.00 | 0.00 | 49 | 964.8 |
| 20260509164534 | 24 | 227 | 3.2 | 12.9 | 0.00 | 0.00 | 0.00 | 45 | 964.7 |
| 20260509164027 | 24 | 274 | 6.4 | 12.9 | 0.00 | 0.00 | 0.00 | 52 | 964.8 |
| 20260509163523 | 24 | 227 | 1.6 | 9.7 | 0.00 | 0.00 | 0.00 | 55 | 964.7 |
| 20260509163021 | 23 | 225 | 3.2 | 9.7 | 0.00 | 0.00 | 0.00 | 52 | 964.7 |
| 20260509162520 | 23 | 252 | 3.2 | 11.3 | 0.00 | 0.00 | 0.00 | 54 | 964.6 |
| 20260509162025 | 23 | 278 | 3.2 | 9.7 | 0.00 | 0.00 | 0.00 | 56 | 964.7 |
| 20260509161518 | 23 | 318 | 3.2 | 9.7 | 0.00 | 0.00 | 0.00 | 53 | 964.7 |
| 20260509161017 | 23 | 317 | 0.0 | 12.9 | 0.00 | 0.00 | 0.00 | 56 | 964.6 |
| 20260509160515 | 23 | 274 | 1.6 | 12.9 | 0.00 | 0.00 | 0.00 | 59 | 964.6 |
| 20260509160015 | 23 | 292 | 3.2 | 9.7 | 0.00 | 0.00 | 0.00 | 61 | 964.6 |
| 20260509155511 | 22 | 348 | 3.2 | 9.7 | 0.00 | 0.00 | 0.00 | 61 | 964.5 |
| 20260509155014 | 22 | 246 | 3.2 | 9.7 | 0.00 | 0.00 | 0.00 | 62 | 964.5 |
| 20260509154509 | 22 | 331 | 3.2 | 8.0 | 0.00 | 0.00 | 0.00 | 60 | 964.5 |
| 20260509154108 | 22 | 210 | 4.8 | 11.3 | 0.00 | 0.00 | 0.00 | 60 | 964.6 |
| 20260509153505 | 22 | 288 | 3.2 | 11.3 | 0.00 | 0.00 | 0.00 | 62 | 964.7 |
| 20260509153006 | 21 | 254 | 3.2 | 11.3 | 0.00 | 0.00 | 0.00 | 65 | 964.7 |
| 20260509152503 | 21 | 267 | 6.4 | 11.3 | 0.00 | 0.00 | 0.00 | 63 | 964.7 |
| 20260509152003 | 21 | 240 | 4.8 | 11.3 | 0.00 | 0.00 | 0.00 | 65 | 964.7 |
| 20260509151600 | 21 | 191 | 8.0 | 11.3 | 0.00 | 0.00 | 0.00 | 65 | 964.6 |
| 20260509151058 | 20 | 202 | 6.4 | 12.9 | 0.00 | 0.00 | 0.00 | 66 | 964.5 |
| 20260509150557 | 20 | 202 | 6.4 | 12.9 | 0.00 | 0.00 | 0.00 | 68 | 964.5 |
| 20260509150055 | 20 | 285 | 3.2 | 8.0 | 0.00 | 0.00 | 0.00 | 68 | 964.5 |
| 20260509145555 | 20 | 267 | 3.2 | 12.9 | 0.00 | 0.00 | 0.00 | 70 | 964.5 |
| 20260509145052 | 20 | 242 | 4.8 | 12.9 | 0.00 | 0.00 | 0.00 | 70 | 964.4 |
| 20260509144558 | 20 | 249 | 3.2 | 8.0 | 0.00 | 0.00 | 0.00 | 71 | 964.3 |
| 20260509144053 | 20 | 263 | 3.2 | 14.5 | 0.00 | 0.00 | 0.00 | 71 | 964.3 |
| 20260509143548 | 19 | 246 | 4.8 | 14.5 | 0.00 | 0.00 | 0.00 | 71 | 964.3 |
| 20260509143050 | 19 | 264 | 4.8 | 14.5 | 0.00 | 0.00 | 0.00 | 72 | 964.3 |
| 20260509142547 | 18 | 257 | 4.8 | 14.5 | 0.00 | 0.00 | 0.00 | 72 | 964.3 |
| 20260509142044 | 18 | 257 | 6.4 | 14.5 | 0.00 | 0.00 | 0.00 | 73 | 964.3 |
| 20260509141542 | 18 | 263 | 6.4 | 14.5 | 0.00 | 0.00 | 0.00 | 73 | 964.3 |
| 20260509141041 | 18 | 252 | 8.0 | 14.5 | 0.00 | 0.00 | 0.00 | 73 | 964.3 |
| 20260509140539 | 18 | 255 | 8.0 | 12.9 | 0.00 | 0.00 | 0.00 | 74 | 964.2 |
| 20260509140046 | 18 | 270 | 4.8 | 12.9 | 0.00 | 0.00 | 0.00 | 75 | 964.1 |
| 20260509135536 | 18 | 228 | 6.4 | 14.5 | 0.00 | 0.00 | 0.00 | 75 | 964.1 |
| 20260509135036 | 17 | 234 | 6.4 | 14.5 | 0.00 | 0.00 | 0.00 | 75 | 964.0 |
| 20260509134539 | 17 | 236 | 6.4 | 12.9 | 0.00 | 0.00 | 0.00 | 75 | 964.0 |
| 20260509134032 | 17 | 250 | 4.8 | 14.5 | 0.00 | 0.00 | 0.00 | 76 | 964.0 |
| 20260509133531 | 17 | 267 | 8.0 | 16.1 | 0.00 | 0.00 | 0.00 | 76 | 964.0 |
| 20260509133031 | 17 | 263 | 6.4 | 16.1 | 0.00 | 0.00 | 0.00 | 77 | 964.0 |
| 20260509132530 | 17 | 286 | 6.4 | 16.1 | 0.00 | 0.00 | 0.00 | 77 | 964.0 |
| 20260509132030 | 17 | 263 | 3.2 | 11.3 | 0.00 | 0.00 | 0.00 | 78 | 964.0 |
| 20260509131533 | 16 | 229 | 4.8 | 9.7 | 0.00 | 0.00 | 0.00 | 78 | 963.9 |
| 20260509131025 | 16 | 265 | 3.2 | 12.9 | 0.00 | 0.00 | 0.00 | 79 | 963.9 |
| 20260509130526 | 16 | 236 | 4.8 | 12.9 | 0.00 | 0.00 | 0.00 | 79 | 963.9 |
| 20260509130022 | 16 | 248 | 4.8 | 11.3 | 0.00 | 0.00 | 0.00 | 80 | 963.7 |
| 20260509125524 | 15 | 267 | 3.2 | 9.7 | 0.00 | 0.00 | 0.00 | 80 | 963.8 |
| 20260509125023 | 15 | 242 | 3.2 | 9.7 | 0.00 | 0.00 | 0.00 | 81 | 963.7 |
| 20260509124518 | 15 | 269 | 4.8 | 8.0 | 0.00 | 0.00 | 0.00 | 81 | 963.7 |
| 20260509124018 | 15 | 273 | 4.8 | 8.0 | 0.00 | 0.00 | 0.00 | 82 | 963.6 |
| 20260509123515 | 14 | 271 | 3.2 | 9.7 | 0.00 | 0.00 | 0.00 | 82 | 963.6 |
| 20260509123018 | 14 | 272 | 4.8 | 9.7 | 0.00 | 0.00 | 0.00 | 83 | 963.6 |
| 20260509122512 | 13 | 261 | 4.8 | 11.3 | 0.00 | 0.00 | 0.00 | 84 | 963.6 |
| 20260509122010 | 13 | 281 | 3.2 | 11.3 | 0.00 | 0.00 | 0.00 | 85 | 963.5 |
| 20260509121613 | 13 | 275 | 3.2 | 11.3 | 0.00 | 0.00 | 0.00 | 85 | 963.5 |
| 20260509121007 | 13 | 277 | 3.2 | 11.3 | 0.00 | 0.00 | 0.00 | 85 | 963.4 |
| 20260509120506 | 12 | 262 | 4.8 | 11.3 | 0.00 | 0.00 | 0.00 | 86 | 963.3 |
| 20260509120005 | 12 | 260 | 1.6 | 9.7 | 0.00 | 0.00 | 0.00 | 85 | 963.2 |
| 20260509115504 | 12 | 265 | 3.2 | 9.7 | 0.00 | 0.00 | 0.00 | 85 | 963.2 |
| 20260509115004 | 12 | 241 | 3.2 | 8.0 | 0.00 | 0.00 | 0.00 | 85 | 963.1 |
| 20260509114504 | 12 | 249 | 3.2 | 4.8 | 0.00 | 0.00 | 0.00 | 86 | 963.0 |
| 20260509114005 | 12 | 242 | 3.2 | 6.4 | 0.00 | 0.00 | 0.00 | 86 | 963.1 |
| 20260509113502 | 12 | 235 | 3.2 | 8.0 | 0.00 | 0.00 | 0.00 | 86 | 963.0 |
| 20260509113002 | 12 | 262 | 1.6 | 6.4 | 0.00 | 0.00 | 0.00 | 87 | 962.9 |
| 20260509112503 | 12 | 270 | 3.2 | 6.4 | 0.00 | 0.00 | 0.00 | 86 | 962.7 |
| 20260509112100 | 12 | 269 | 1.6 | 6.4 | 0.00 | 0.00 | 0.00 | 86 | 962.6 |
| 20260509111600 | 12 | 273 | 1.6 | 9.7 | 0.00 | 0.00 | 0.00 | 86 | 962.5 |
| 20260509111058 | 12 | 267 | 3.2 | 6.4 | 0.00 | 0.00 | 0.00 | 86 | 962.6 |
| 20260509110558 | 12 | 260 | 1.6 | 4.8 | 0.00 | 0.00 | 0.00 | 86 | 962.5 |
| 20260509110502 | 12 | 259 | 1.6 | 4.8 | 0.00 | 0.00 | 0.00 | 86 | 962.4 |
| 20260509105558 | 12 | 255 | 0.0 | 4.8 | 0.00 | 0.00 | 0.00 | 85 | 962.4 |
| 20260509105057 | 12 | 254 | 0.0 | 4.8 | 0.00 | 0.00 | 0.00 | 84 | 962.4 |
| 20260509104556 | 12 | 254 | 1.6 | 6.4 | 0.00 | 0.00 | 0.00 | 83 | 962.4 |
| 20260509104056 | 12 | 251 | 3.2 | 6.4 | 0.00 | 0.00 | 0.00 | 83 | 962.4 |
| 20260509103554 | 13 | 265 | 3.2 | 6.4 | 0.00 | 0.00 | 0.00 | 83 | 962.3 |
| 20260509103101 | 13 | 266 | 3.2 | 6.4 | 0.00 | 0.00 | 0.00 | 83 | 962.4 |
| 20260509102553 | 13 | 268 | 3.2 | 6.4 | 0.00 | 0.00 | 0.00 | 83 | 962.3 |
| 20260509102053 | 13 | 261 | 3.2 | 8.0 | 0.00 | 0.00 | 0.00 | 82 | 962.5 |
| 20260509101559 | 13 | 265 | 3.2 | 8.0 | 0.00 | 0.00 | 0.00 | 82 | 962.6 |
| 20260509101051 | 13 | 248 | 1.6 | 6.4 | 0.00 | 0.00 | 0.00 | 81 | 962.6 |
| 20260509100551 | 13 | 243 | 3.2 | 8.0 | 0.00 | 0.00 | 0.00 | 81 | 962.5 |
| 20260509100052 | 13 | 256 | 3.2 | 12.9 | 0.00 | 0.00 | 0.00 | 81 | 962.6 |
| 20260509095550 | 13 | 261 | 6.4 | 12.9 | 0.00 | 0.00 | 0.00 | 82 | 962.6 |